logo tempoitalia

Diretta Meteo Grafton, Stati Uniti (USA)lunedì 31 agosto ore 01:35

Mappa
Sereno 19 °C Sereno 24 Ore: T.min 17 T.max 25
Ponente Ovest/Sud-Ovest Km/h 14.8 Punto di rugiada: 19 °C Umidità: 100% Visibilità: 10 Km
Il sole sorge alle: 06:46 Il sole tramonta alle: 20:13
31 Agosto 2026 01:35 tempo osservato: Sereno Sereno 19 100 1005 vento: Nord O/SO 14.8
31 Agosto 2026 01:15 tempo osservato: Sereno Sereno 19 100 1004 vento: Nord S/SE 9.3
31 Agosto 2026 00:55 tempo osservato: Foschia Foschia 19 100 1004 vento: Nord O/SO 13
31 Agosto 2026 00:35 tempo osservato: Foschia Foschia 19 100 1004 vento: Nord S 18.5
31 Agosto 2026 00:15 tempo osservato: Temporale Temporale 19 100 1005 vento: Nord S/SO 20.3
30 Agosto 2026 23:55 tempo osservato: Temporale nelle vicinanze Foschia Temporale nelle vicinanze Foschia 20 100 1004 vento: Nord SE 16.7
30 Agosto 2026 23:35 tempo osservato: Molto Nuvoloso Molto Nuvoloso 20 100 1004 vento: Nord E/SE 16.7
30 Agosto 2026 23:15 tempo osservato: Coperto Coperto 20 100 1005 vento: Nord E/SE 14.8
30 Agosto 2026 22:55 tempo osservato: Coperto Coperto 20 100 1005 vento: Nord E 16.7
30 Agosto 2026 22:35 tempo osservato: Temporale nelle vicinanze Temporale nelle vicinanze 20 100 1005 vento: Nord E/SE 22.2
30 Agosto 2026 22:15 tempo osservato: Foschia Foschia 20 100 1006 vento: Nord E 14.8
30 Agosto 2026 21:55 tempo osservato: Temporale nelle vicinanze Foschia Temporale nelle vicinanze Foschia 20 100 1006 vento: Nord E/SE 18.5
30 Agosto 2026 21:35 tempo osservato: Foschia Foschia 20 100 1007 vento: Nord SE 11.1
30 Agosto 2026 21:15 tempo osservato: Temporale nelle vicinanze Temporale nelle vicinanze 21 88 1007 vento: Nord E/SE 14.8
30 Agosto 2026 20:55 tempo osservato: Molto Nuvoloso Molto Nuvoloso 22 78 1006 vento: Nord E/SE 24
30 Agosto 2026 20:35 tempo osservato: Molto Nuvoloso Molto Nuvoloso 22 78 1006 vento: Nord E/SE 22.2
30 Agosto 2026 20:15 tempo osservato: Molto Nuvoloso Molto Nuvoloso 22 83 1006 vento: Nord E/SE 20.3
30 Agosto 2026 19:55 tempo osservato: Coperto Coperto 23 78 1007 vento: Nord E/SE 18.5
30 Agosto 2026 19:35 tempo osservato: Coperto Coperto 23 78 1007 vento: Nord SE 22.2
30 Agosto 2026 19:15 tempo osservato: Coperto Coperto 23 78 1007 vento: Nord E/SE 24
30 Agosto 2026 18:55 tempo osservato: Coperto Coperto 24 73 1006 vento: Nord E/SE 29.6
30 Agosto 2026 18:35 tempo osservato: Nuvoloso Nuvoloso 24 73 1007 vento: Nord E/SE 24
30 Agosto 2026 18:15 tempo osservato: Sereno Sereno 25 69 1006 vento: Nord E/SE 25.9
30 Agosto 2026 17:55 tempo osservato: Sereno Sereno 24 73 1006 vento: Nord E/SE 24
30 Agosto 2026 17:35 tempo osservato: Sereno Sereno 24 73 1007 vento: Nord E/SE 18.5
30 Agosto 2026 17:15 tempo osservato: Sereno Sereno 24 73 1007 vento: Nord E/SE 22.2
30 Agosto 2026 16:55 tempo osservato: Sereno Sereno 23 78 1008 vento: Nord E 22.2
30 Agosto 2026 16:35 tempo osservato: Sereno Sereno 24 73 1008 vento: Nord E/SE 18.5
30 Agosto 2026 16:15 tempo osservato: Sereno Sereno 24 73 1008 vento: Nord E/SE 20.3
30 Agosto 2026 15:55 tempo osservato: Sereno Sereno 24 73 1009 vento: Nord SE 20.3
30 Agosto 2026 15:35 tempo osservato: Sereno Sereno 24 73 1009 vento: Nord E/SE 22.2
30 Agosto 2026 15:15 tempo osservato: Sereno Sereno 25 69 1009 vento: Nord E/SE 22.2
30 Agosto 2026 14:55 tempo osservato: Sereno Sereno 25 69 1009 vento: Nord SE 22.2
30 Agosto 2026 14:35 tempo osservato: Poco Nuvoloso Poco Nuvoloso 25 69 1009 vento: Nord E/SE 20.3
30 Agosto 2026 14:15 tempo osservato: Poco Nuvoloso Poco Nuvoloso 25 69 1009 vento: Nord E/SE 18.5
30 Agosto 2026 13:55 tempo osservato: Poco Nuvoloso Poco Nuvoloso 25 69 1009 vento: Nord E/SE 16.7
30 Agosto 2026 13:35 tempo osservato: Poco Nuvoloso Poco Nuvoloso 25 69 1009 vento: Nord E 14.8
30 Agosto 2026 13:15 tempo osservato: Sereno Sereno 24 73 1009 vento: Nord E 20.3
30 Agosto 2026 12:55 tempo osservato: Sereno Sereno 24 73 1009 vento: Nord E/SE 16.7
30 Agosto 2026 12:35 tempo osservato: Sereno Sereno 24 73 1009 vento: Nord E 20.3
30 Agosto 2026 12:15 tempo osservato: Sereno Sereno 23 78 1009 vento: Nord E 22.2
30 Agosto 2026 11:55 tempo osservato: Poco Nuvoloso Poco Nuvoloso 24 73 1010 vento: Nord E 18.5
30 Agosto 2026 11:35 tempo osservato: Sereno Sereno 23 78 1010 vento: Nord E 16.7
30 Agosto 2026 11:15 tempo osservato: Sereno Sereno 22 83 1010 vento: Nord E 18.5
30 Agosto 2026 10:55 tempo osservato: Sereno Sereno 22 83 1010 vento: Nord E/SE 14.8
30 Agosto 2026 10:35 tempo osservato: Sereno Sereno 21 88 1010 vento: Nord SE 18.5
30 Agosto 2026 10:15 tempo osservato: Sereno Sereno 21 94 1010 vento: Nord E/SE 16.7
30 Agosto 2026 09:55 tempo osservato: Sereno Sereno 21 94 1010 vento: Nord E/SE 14.8
30 Agosto 2026 09:35 tempo osservato: Sereno Sereno 20 100 1010 vento: Nord E 11.1
30 Agosto 2026 09:15 tempo osservato: Sereno Sereno 19 100 1010 vento: Nord E/SE 14.8
30 Agosto 2026 08:55 tempo osservato: Poco Nuvoloso Poco Nuvoloso 19 100 1010 vento: Nord E 16.7
30 Agosto 2026 08:35 tempo osservato: Poco Nuvoloso Poco Nuvoloso 19 100 1010 vento: Nord E 13
30 Agosto 2026 08:15 tempo osservato: Sereno Sereno 19 100 1010 vento: Nord E/SE 14.8
30 Agosto 2026 07:55 tempo osservato: Sereno Sereno 19 100 1010 vento: Nord E/SE 13
30 Agosto 2026 07:35 tempo osservato: Sereno Sereno 19 100 1010 vento: Nord E 14.8
30 Agosto 2026 07:15 tempo osservato: Sereno Sereno 18 100 1010 vento: Nord E 13
30 Agosto 2026 06:55 tempo osservato: Sereno Sereno 18 100 1010 vento: Nord E 11.1
30 Agosto 2026 06:35 tempo osservato: Sereno Sereno 18 100 1010 vento: Nord E 9.3
30 Agosto 2026 06:15 tempo osservato: Sereno Sereno 18 100 1010 vento: Nord E/NE 9.3
30 Agosto 2026 05:55 tempo osservato: Poco Nuvoloso Poco Nuvoloso 18 100 1010 vento: Nord E 9.3
30 Agosto 2026 05:35 tempo osservato: Molto Nuvoloso Molto Nuvoloso 18 100 1010 vento: Nord E 9.3
30 Agosto 2026 05:15 tempo osservato: Coperto Coperto 18 100 1010 vento: Nord E 7.4
30 Agosto 2026 04:55 tempo osservato: Molto Nuvoloso Molto Nuvoloso 18 100 1010 vento: Nord E 7.4
30 Agosto 2026 04:35 tempo osservato: Sereno Sereno 17 100 1010 vento: Nord E/NE 11.1
30 Agosto 2026 04:15 tempo osservato: Sereno Sereno 18 100 1010 vento: Nord E 9.3
30 Agosto 2026 03:55 tempo osservato: Sereno Sereno 18 100 1010 vento: Nord E 7.4
30 Agosto 2026 03:35 tempo osservato: Sereno Sereno 18 100 1010 vento: Nord N 5.5
30 Agosto 2026 03:15 tempo osservato: Sereno Sereno 19 100 1010 vento: Nord E 7.4
30 Agosto 2026 02:55 tempo osservato: Sereno Sereno 19 100 1010 vento: Nord E/NE 9.3
30 Agosto 2026 02:35 tempo osservato: Sereno Sereno 19 100 1010 vento: Nord E/NE 9.3
30 Agosto 2026 02:15 tempo osservato: Sereno Sereno 19 100 1010 vento: Nord E 7.4
30 Agosto 2026 01:55 tempo osservato: Sereno Sereno 19 100 1010 vento: Nord E 7.4
30 Agosto 2026 01:35 tempo osservato: Sereno Sereno 19 100 1010 vento: Nord N 5.5